Time,TemperatureF,DewpointF,PressureIn,WindDirection,WindDirectionDegrees,WindSpeedMPH,WindSpeedGustMPH,Humidity,HourlyPrecipIn,Conditions,Clouds,dailyrainin,SoftwareType,DateUTC
2013-07-22 00:01:00,63.0,53.6,29.97,ESE,114,0.0,0.0,72,-99.99,,,-99.99,perl,2013-07-22 04:01:00,
2013-07-22 00:02:00,63.0,53.6,29.97,ESE,114,0.0,0.0,72,-99.99,,,-99.99,perl,2013-07-22 04:02:00,
2013-07-22 00:04:00,63.0,53.6,29.97,ESE,113,0.0,0.0,72,-99.99,,,-99.99,perl,2013-07-22 04:04:00,
2013-07-22 00:09:00,63.0,53.6,29.97,ESE,113,0.0,0.0,72,-99.99,,,-99.99,perl,2013-07-22 04:09:00,
2013-07-22 00:10:00,63.0,53.6,29.97,ESE,114,0.0,0.0,72,-99.99,,,-99.99,perl,2013-07-22 04:10:00,
2013-07-22 00:15:00,63.0,53.6,29.97,ESE,114,0.0,0.0,72,-99.99,,,-99.99,perl,2013-07-22 04:15:00,
2013-07-22 00:20:00,63.0,53.6,29.97,ESE,113,0.0,0.0,72,-99.99,,,-99.99,perl,2013-07-22 04:20:00,
2013-07-22 00:25:00,63.0,53.6,29.97,ESE,114,0.0,0.0,72,-99.99,,,-99.99,perl,2013-07-22 04:25:00,
2013-07-22 00:30:00,62.8,53.6,29.97,ESE,114,0.0,0.0,72,-99.99,,,-99.99,perl,2013-07-22 04:30:00,
2013-07-22 00:35:00,62.6,53.6,29.97,ESE,114,0.0,0.0,72,-99.99,,,-99.99,perl,2013-07-22 04:35:00,
2013-07-22 00:40:00,62.6,53.6,30.00,ESE,114,0.0,0.0,72,-99.99,,,-99.99,perl,2013-07-22 04:40:00,
2013-07-22 00:45:00,62.6,55.4,30.00,ESE,113,0.0,0.0,77,-99.99,,,-99.99,perl,2013-07-22 04:45:00,
2013-07-22 00:50:00,62.4,55.4,30.00,ESE,114,0.0,0.0,78,-99.99,,,-99.99,perl,2013-07-22 04:50:00,
2013-07-22 00:55:00,62.2,55.4,29.97,ESE,113,0.0,0.0,79,-99.99,,,-99.99,perl,2013-07-22 04:55:00,
2013-07-22 01:00:00,62.2,55.4,29.97,ESE,113,0.0,0.0,79,-99.99,,,-99.99,perl,2013-07-22 05:00:00,
2013-07-22 01:06:00,62.1,55.4,29.97,ESE,113,0.0,0.0,79,-99.99,,,-99.99,perl,2013-07-22 05:06:00,
2013-07-22 01:11:00,61.9,55.4,29.97,ESE,113,0.0,0.0,79,-99.99,,,-99.99,perl,2013-07-22 05:11:00,
2013-07-22 01:16:00,61.9,55.4,29.97,ESE,113,0.0,0.0,79,-99.99,,,-99.99,perl,2013-07-22 05:16:00,
2013-07-22 01:21:00,61.7,55.4,29.97,ESE,113,0.0,0.0,80,-99.99,,,-99.99,perl,2013-07-22 05:21:00,
2013-07-22 01:26:00,61.7,55.4,29.97,ESE,114,0.0,0.0,80,-99.99,,,-99.99,perl,2013-07-22 05:26:00,
2013-07-22 01:31:00,61.7,55.4,29.97,ESE,114,0.0,0.0,80,-99.99,,,-99.99,perl,2013-07-22 05:31:00,
2013-07-22 01:36:00,61.5,53.6,29.97,ESE,114,0.0,0.0,76,-99.99,,,-99.99,perl,2013-07-22 05:36:00,
2013-07-22 01:41:00,61.5,55.4,29.97,ESE,113,0.0,0.0,81,-99.99,,,-99.99,perl,2013-07-22 05:41:00,
2013-07-22 01:46:00,61.3,55.4,29.97,ESE,113,0.0,0.0,81,-99.99,,,-99.99,perl,2013-07-22 05:46:00,
2013-07-22 01:51:00,61.3,55.4,29.97,ESE,113,0.0,0.0,81,-99.99,,,-99.99,perl,2013-07-22 05:51:00,
2013-07-22 01:56:00,61.2,55.4,29.97,ESE,114,0.0,0.0,81,-99.99,,,-99.99,perl,2013-07-22 05:56:00,
2013-07-22 02:01:00,61.2,55.4,29.97,ESE,114,0.0,0.0,81,-99.99,,,-99.99,perl,2013-07-22 06:01:00,
2013-07-22 02:06:00,61.2,55.4,29.97,ESE,113,0.0,0.0,81,-99.99,,,-99.99,perl,2013-07-22 06:06:00,
2013-07-22 02:11:00,61.2,55.4,29.97,ESE,113,0.0,0.0,81,-99.99,,,-99.99,perl,2013-07-22 06:11:00,
2013-07-22 02:16:00,61.2,55.4,29.97,ESE,114,0.0,0.0,81,-99.99,,,-99.99,perl,2013-07-22 06:16:00,
2013-07-22 02:21:00,61.0,55.4,29.97,ESE,113,0.0,0.0,82,-99.99,,,-99.99,perl,2013-07-22 06:21:00,
2013-07-22 02:26:00,61.0,55.4,29.97,ESE,113,0.0,0.0,82,-99.99,,,-99.99,perl,2013-07-22 06:26:00,
2013-07-22 02:31:00,61.0,55.4,29.97,ESE,113,0.0,0.0,82,-99.99,,,-99.99,perl,2013-07-22 06:31:00,
2013-07-22 02:36:00,61.0,55.4,29.97,ESE,113,0.0,0.0,82,-99.99,,,-99.99,perl,2013-07-22 06:36:00,
2013-07-22 02:41:00,61.0,55.4,29.97,ESE,113,0.0,0.0,82,-99.99,,,-99.99,perl,2013-07-22 06:41:00,
2013-07-22 02:46:00,61.0,55.4,29.97,ESE,114,0.0,0.0,82,-99.99,,,-99.99,perl,2013-07-22 06:46:00,
2013-07-22 02:51:00,61.0,55.4,29.97,ESE,113,0.0,0.0,82,-99.99,,,-99.99,perl,2013-07-22 06:51:00,
2013-07-22 02:57:00,61.0,55.4,29.97,ESE,113,0.0,0.0,82,-99.99,,,-99.99,perl,2013-07-22 06:57:00,
2013-07-22 03:02:00,61.0,55.4,29.97,ESE,113,0.0,0.0,82,-99.99,,,-99.99,perl,2013-07-22 07:02:00,
2013-07-22 03:07:00,60.8,55.4,29.97,ESE,114,0.0,0.0,82,-99.99,,,-99.99,perl,2013-07-22 07:07:00,
2013-07-22 03:12:00,60.8,55.4,29.94,ESE,114,0.0,0.0,82,-99.99,,,-99.99,perl,2013-07-22 07:12:00,
2013-07-22 03:17:00,60.6,55.4,29.94,ESE,113,0.0,0.0,83,-99.99,,,-99.99,perl,2013-07-22 07:17:00,
2013-07-22 03:22:00,60.6,55.4,29.94,ESE,114,0.0,0.0,83,-99.99,,,-99.99,perl,2013-07-22 07:22:00,
2013-07-22 03:27:00,60.6,55.4,29.94,ESE,114,0.0,0.0,83,-99.99,,,-99.99,perl,2013-07-22 07:27:00,
2013-07-22 03:32:00,60.6,57.2,29.94,ESE,114,0.0,0.0,89,-99.99,,,-99.99,perl,2013-07-22 07:32:00,
2013-07-22 03:37:00,60.6,57.2,29.94,ESE,113,0.0,0.0,89,-99.99,,,-99.99,perl,2013-07-22 07:37:00,
2013-07-22 03:42:00,60.8,57.2,29.94,ESE,114,0.0,0.0,88,-99.99,,,-99.99,perl,2013-07-22 07:42:00,
2013-07-22 03:48:00,60.8,57.2,29.94,ESE,114,0.0,0.0,88,-99.99,,,-99.99,perl,2013-07-22 07:48:00,
2013-07-22 03:53:00,60.6,57.2,29.94,ESE,113,0.0,0.0,89,-99.99,,,-99.99,perl,2013-07-22 07:53:00,
2013-07-22 03:58:00,60.6,57.2,29.94,ESE,114,0.0,0.0,89,-99.99,,,-99.99,perl,2013-07-22 07:58:00,
2013-07-22 04:03:00,60.6,57.2,29.94,ESE,114,0.0,0.0,89,-99.99,,,-99.99,perl,2013-07-22 08:03:00,
2013-07-22 04:08:00,60.6,57.2,29.94,ESE,113,0.0,0.0,89,-99.99,,,-99.99,perl,2013-07-22 08:08:00,
2013-07-22 04:13:00,60.6,57.2,29.94,ESE,113,0.0,0.0,89,-99.99,,,-99.99,perl,2013-07-22 08:13:00,
2013-07-22 04:19:00,60.4,57.2,29.94,ESE,114,0.0,0.0,90,-99.99,,,-99.99,perl,2013-07-22 08:19:00,
2013-07-22 04:24:00,60.4,57.2,29.94,ESE,113,0.0,0.0,90,-99.99,,,-99.99,perl,2013-07-22 08:24:00,
2013-07-22 04:29:00,60.4,57.2,29.94,ESE,113,0.0,0.0,90,-99.99,,,-99.99,perl,2013-07-22 08:29:00,
2013-07-22 04:35:00,60.4,57.2,29.94,ESE,113,0.0,0.0,90,-99.99,,,-99.99,perl,2013-07-22 08:35:00,
2013-07-22 04:40:00,60.4,57.2,29.94,ESE,114,0.0,0.0,90,-99.99,,,-99.99,perl,2013-07-22 08:40:00,
2013-07-22 04:45:00,60.4,57.2,29.94,ESE,113,0.0,0.0,90,-99.99,,,-99.99,perl,2013-07-22 08:45:00,
2013-07-22 04:50:00,60.4,57.2,29.94,ESE,114,0.0,0.0,90,-99.99,,,-99.99,perl,2013-07-22 08:50:00,
2013-07-22 04:55:00,60.3,57.2,29.94,ESE,114,0.0,0.0,90,-99.99,,,-99.99,perl,2013-07-22 08:55:00,
2013-07-22 05:00:00,60.3,57.2,29.94,ESE,114,0.0,0.0,90,-99.99,,,-99.99,perl,2013-07-22 09:00:00,
2013-07-22 05:05:00,60.3,57.2,29.94,ESE,113,0.0,0.0,90,-99.99,,,-99.99,perl,2013-07-22 09:05:00,
2013-07-22 05:10:00,60.3,57.2,29.94,ESE,114,0.0,0.0,90,-99.99,,,-99.99,perl,2013-07-22 09:10:00,
2013-07-22 05:15:00,60.1,57.2,29.94,ESE,114,0.0,0.0,90,-99.99,,,-99.99,perl,2013-07-22 09:15:00,
2013-07-22 05:20:00,60.1,57.2,29.94,ESE,114,0.0,0.0,90,-99.99,,,-99.99,perl,2013-07-22 09:20:00,
2013-07-22 05:25:00,60.1,57.2,29.94,ESE,113,0.0,0.0,90,-99.99,,,-99.99,perl,2013-07-22 09:25:00,
2013-07-22 05:30:00,60.1,57.2,29.94,ESE,114,0.0,0.0,90,-99.99,,,-99.99,perl,2013-07-22 09:30:00,
2013-07-22 05:35:00,60.1,57.2,29.94,ESE,114,0.0,0.0,90,-99.99,,,-99.99,perl,2013-07-22 09:35:00,
2013-07-22 05:40:00,60.1,57.2,29.94,ESE,114,0.0,0.0,90,-99.99,,,-99.99,perl,2013-07-22 09:40:00,
2013-07-22 05:45:00,60.1,57.2,29.94,ESE,113,0.0,0.0,90,-99.99,,,-99.99,perl,2013-07-22 09:45:00,
2013-07-22 05:50:00,60.3,59.0,29.94,ESE,113,0.0,0.0,96,-99.99,,,-99.99,perl,2013-07-22 09:50:00,
2013-07-22 05:55:00,60.3,59.0,29.94,ESE,113,0.0,0.0,96,-99.99,,,-99.99,perl,2013-07-22 09:55:00,
2013-07-22 06:02:00,60.3,59.0,29.94,ESE,113,0.0,0.0,96,-99.99,,,-99.99,perl,2013-07-22 10:02:00,
2013-07-22 06:07:00,60.1,59.0,29.94,ESE,113,0.0,0.0,96,-99.99,,,-99.99,perl,2013-07-22 10:07:00,
2013-07-22 06:12:00,60.1,59.0,29.94,ESE,113,0.0,0.0,96,-99.99,,,-99.99,perl,2013-07-22 10:12:00,
2013-07-22 06:17:00,60.1,59.0,29.94,ESE,114,0.0,0.0,96,-99.99,,,-99.99,perl,2013-07-22 10:17:00,
2013-07-22 06:22:00,60.1,59.0,29.94,ESE,114,0.0,0.0,96,-99.99,,,-99.99,perl,2013-07-22 10:22:00,
2013-07-22 06:27:00,60.1,59.0,29.97,ESE,113,0.0,0.0,96,-99.99,,,-99.99,perl,2013-07-22 10:27:00,
2013-07-22 06:32:00,60.3,59.0,29.97,ESE,114,0.0,0.0,96,-99.99,,,-99.99,perl,2013-07-22 10:32:00,
2013-07-22 06:37:00,60.3,59.0,29.97,ESE,114,0.0,0.0,96,-99.99,,,-99.99,perl,2013-07-22 10:37:00,
2013-07-22 06:42:00,60.4,59.0,29.97,ESE,113,0.0,0.0,96,-99.99,,,-99.99,perl,2013-07-22 10:42:00,
2013-07-22 06:47:00,60.4,59.0,29.97,ESE,114,0.0,0.0,96,-99.99,,,-99.99,perl,2013-07-22 10:47:00,
2013-07-22 06:52:00,60.6,59.0,29.97,ESE,114,0.0,0.0,95,-99.99,,,-99.99,perl,2013-07-22 10:52:00,
2013-07-22 06:57:00,60.8,59.0,29.94,ESE,113,0.0,0.0,94,-99.99,,,-99.99,perl,2013-07-22 10:57:00,
2013-07-22 07:02:00,61.0,59.0,29.94,ESE,114,0.0,0.0,93,-99.99,,,-99.99,perl,2013-07-22 11:02:00,
2013-07-22 07:07:00,61.3,59.0,29.94,ESE,113,0.0,0.0,93,-99.99,,,-99.99,perl,2013-07-22 11:07:00,
2013-07-22 07:12:00,61.7,60.8,29.94,ESE,113,0.0,0.0,97,-99.99,,,-99.99,perl,2013-07-22 11:12:00,
2013-07-22 07:17:00,61.9,60.8,29.94,ESE,113,0.0,0.0,96,-99.99,,,-99.99,perl,2013-07-22 11:17:00,
2013-07-22 07:22:00,62.2,60.8,29.94,ESE,113,0.0,0.0,96,-99.99,,,-99.99,perl,2013-07-22 11:22:00,
2013-07-22 07:27:00,62.6,60.8,29.94,ESE,113,0.0,0.0,94,-99.99,,,-99.99,perl,2013-07-22 11:27:00,
2013-07-22 07:32:00,63.0,60.8,29.94,ESE,114,0.0,0.0,93,-99.99,,,-99.99,perl,2013-07-22 11:32:00,
2013-07-22 07:37:00,63.3,60.8,29.94,ESE,123,0.0,0.0,92,-99.99,,,-99.99,perl,2013-07-22 11:37:00,
2013-07-22 07:42:00,63.9,62.6,29.94,SE,132,0.0,0.0,96,-99.99,,,-99.99,perl,2013-07-22 11:42:00,
2013-07-22 07:47:00,64.2,62.6,29.94,SE,134,0.0,0.0,95,-99.99,,,-99.99,perl,2013-07-22 11:47:00,
2013-07-22 07:53:00,64.6,60.8,29.94,SE,141,0.0,0.0,88,-99.99,,,-99.99,perl,2013-07-22 11:53:00,
2013-07-22 07:58:00,65.1,60.8,29.94,East,84,0.0,0.0,86,-99.99,,,-99.99,perl,2013-07-22 11:58:00,
2013-07-22 08:03:00,65.5,62.6,29.94,East,83,0.0,0.0,90,-99.99,,,-99.99,perl,2013-07-22 12:03:00,
2013-07-22 08:08:00,65.8,62.6,29.94,East,83,0.0,0.0,90,-99.99,,,-99.99,perl,2013-07-22 12:08:00,
2013-07-22 08:13:00,66.2,62.6,29.94,East,83,0.0,0.0,88,-99.99,,,-99.99,perl,2013-07-22 12:13:00,
2013-07-22 08:18:00,66.7,62.6,29.94,East,96,0.0,0.0,87,-99.99,,,-99.99,perl,2013-07-22 12:18:00,
2013-07-22 08:23:00,67.1,62.6,29.94,SE,126,0.0,0.0,86,-99.99,,,-99.99,perl,2013-07-22 12:23:00,
2013-07-22 08:28:00,67.8,62.6,29.94,East,89,0.0,0.0,84,-99.99,,,-99.99,perl,2013-07-22 12:28:00,
2013-07-22 08:33:00,68.5,60.8,29.94,ESE,122,0.0,5.4,77,-99.99,,,-99.99,perl,2013-07-22 12:33:00,
2013-07-22 08:38:00,68.9,53.6,29.94,SSE,153,3.6,5.8,58,-99.99,,,-99.99,perl,2013-07-22 12:38:00,
2013-07-22 08:44:00,69.3,51.8,29.94,ESE,108,2.7,4.0,53,-99.99,,,-99.99,perl,2013-07-22 12:44:00,
2013-07-22 08:49:00,69.4,53.6,29.94,East,99,2.7,0.0,57,-99.99,,,-99.99,perl,2013-07-22 12:49:00,
2013-07-22 08:54:00,69.6,53.6,29.94,SE,129,3.6,3.6,57,-99.99,,,-99.99,perl,2013-07-22 12:54:00,
2013-07-22 08:59:00,70.0,53.6,29.94,East,98,2.2,3.1,56,-99.99,,,-99.99,perl,2013-07-22 12:59:00,
2013-07-22 09:04:00,70.3,53.6,29.94,ESE,108,3.1,3.6,56,-99.99,,,-99.99,perl,2013-07-22 13:04:00,
2013-07-22 09:09:00,70.3,51.8,29.94,ESE,104,3.6,3.6,52,-99.99,,,-99.99,perl,2013-07-22 13:09:00,
2013-07-22 09:14:00,70.2,51.8,29.94,East,100,3.6,3.6,52,-99.99,,,-99.99,perl,2013-07-22 13:14:00,
2013-07-22 09:19:00,70.0,51.8,29.94,ESE,121,0.0,0.0,52,-99.99,,,-99.99,perl,2013-07-22 13:19:00,
2013-07-22 09:24:00,70.0,53.6,29.94,ENE,65,0.0,0.0,56,-99.99,,,-99.99,perl,2013-07-22 13:24:00,
2013-07-22 09:29:00,70.0,53.6,29.94,ESE,110,0.0,0.0,56,-99.99,,,-99.99,perl,2013-07-22 13:29:00,
2013-07-22 09:34:00,70.3,53.6,29.94,SE,127,0.0,0.0,56,-99.99,,,-99.99,perl,2013-07-22 13:34:00,
2013-07-22 09:39:00,70.2,51.8,29.94,SE,124,4.5,5.4,52,-99.99,,,-99.99,perl,2013-07-22 13:39:00,
2013-07-22 09:44:00,70.2,51.8,29.94,SE,146,0.0,0.0,52,-99.99,,,-99.99,perl,2013-07-22 13:44:00,
2013-07-22 09:49:00,70.2,51.8,29.94,ESE,108,2.2,3.6,52,-99.99,,,-99.99,perl,2013-07-22 13:49:00,
2013-07-22 09:54:00,70.3,51.8,29.94,SE,139,0.5,3.6,52,-99.99,,,-99.99,perl,2013-07-22 13:54:00,
2013-07-22 09:59:00,70.5,53.6,29.94,ESE,103,0.0,0.0,55,-99.99,,,-99.99,perl,2013-07-22 13:59:00,
2013-07-22 10:04:00,70.9,55.4,29.94,East,82,0.0,0.0,58,-99.99,,,-99.99,perl,2013-07-22 14:04:00,
2013-07-22 10:09:00,71.2,55.4,29.94,East,96,0.0,3.6,58,-99.99,,,-99.99,perl,2013-07-22 14:09:00,
2013-07-22 10:14:00,71.6,55.4,29.94,ESE,112,0.0,0.0,57,-99.99,,,-99.99,perl,2013-07-22 14:14:00,
2013-07-22 10:19:00,72.1,53.6,29.94,ESE,104,0.0,0.0,52,-99.99,,,-99.99,perl,2013-07-22 14:19:00,
2013-07-22 10:24:00,72.9,55.4,29.94,South,191,0.0,0.0,54,-99.99,,,-99.99,perl,2013-07-22 14:24:00,
2013-07-22 10:29:00,73.6,55.4,29.91,NE,56,0.0,0.0,53,-99.99,,,-99.99,perl,2013-07-22 14:29:00,
2013-07-22 10:34:00,73.8,53.6,29.91,ESE,104,0.0,0.0,49,-99.99,,,-99.99,perl,2013-07-22 14:34:00,
2013-07-22 10:39:00,74.1,51.8,29.91,East,98,0.0,3.6,46,-99.99,,,-99.99,perl,2013-07-22 14:39:00,
2013-07-22 10:44:00,74.3,53.6,29.91,ENE,72,3.1,4.0,48,-99.99,,,-99.99,perl,2013-07-22 14:44:00,
2013-07-22 10:50:00,74.5,53.6,29.91,SE,134,3.6,5.4,48,-99.99,,,-99.99,perl,2013-07-22 14:50:00,
2013-07-22 10:55:00,74.8,53.6,29.94,SE,136,0.0,0.0,48,-99.99,,,-99.99,perl,2013-07-22 14:55:00,
2013-07-22 11:00:00,75.2,50.0,29.94,SE,131,0.0,0.0,41,-99.99,,,-99.99,perl,2013-07-22 15:00:00,
2013-07-22 11:05:00,75.6,50.0,29.94,ESE,107,0.0,0.0,41,-99.99,,,-99.99,perl,2013-07-22 15:05:00,
2013-07-22 11:10:00,75.7,48.2,29.91,East,99,2.7,0.0,38,-99.99,,,-99.99,perl,2013-07-22 15:10:00,
2013-07-22 11:15:00,75.2,50.0,29.91,East,95,0.0,2.7,41,-99.99,,,-99.99,perl,2013-07-22 15:15:00,
2013-07-22 11:20:00,75.4,48.2,29.91,ESE,106,2.7,2.7,38,-99.99,,,-99.99,perl,2013-07-22 15:20:00,
2013-07-22 11:25:00,75.9,50.0,29.91,ESE,102,0.0,0.0,40,-99.99,,,-99.99,perl,2013-07-22 15:25:00,
2013-07-22 11:30:00,76.5,51.8,29.91,SE,134,0.0,5.4,42,-99.99,,,-99.99,perl,2013-07-22 15:30:00,
2013-07-22 11:35:00,76.6,50.0,29.91,ESE,113,0.0,4.0,40,-99.99,,,-99.99,perl,2013-07-22 15:35:00,
2013-07-22 11:40:00,76.6,50.0,29.91,East,83,0.0,0.0,40,-99.99,,,-99.99,perl,2013-07-22 15:40:00,
2013-07-22 11:45:00,77.4,51.8,29.91,SE,140,0.0,0.0,41,-99.99,,,-99.99,perl,2013-07-22 15:45:00,
2013-07-22 11:50:00,77.9,51.8,29.91,ESE,120,0.0,0.0,40,-99.99,,,-99.99,perl,2013-07-22 15:50:00,
2013-07-22 11:55:00,77.9,48.2,29.91,SSW,193,3.1,3.1,35,-99.99,,,-99.99,perl,2013-07-22 15:55:00,
2013-07-22 12:00:00,77.9,50.0,29.91,East,84,2.9,3.6,38,-99.99,,,-99.99,perl,2013-07-22 16:00:00,
2013-07-22 12:05:00,77.7,50.0,29.91,East,96,0.0,4.5,38,-99.99,,,-99.99,perl,2013-07-22 16:05:00,
2013-07-22 12:10:00,78.1,51.8,29.91,SE,126,0.0,3.6,40,-99.99,,,-99.99,perl,2013-07-22 16:10:00,
2013-07-22 12:15:00,78.4,51.8,29.91,ESE,113,3.1,4.0,40,-99.99,,,-99.99,perl,2013-07-22 16:15:00,
2013-07-22 12:20:00,78.1,51.8,29.91,ESE,110,3.6,5.4,40,-99.99,,,-99.99,perl,2013-07-22 16:20:00,
2013-07-22 12:25:00,78.1,51.8,29.91,ENE,77,0.0,3.1,40,-99.99,,,-99.99,perl,2013-07-22 16:25:00,
2013-07-22 12:30:00,78.6,51.8,29.91,ENE,65,2.7,0.0,39,-99.99,,,-99.99,perl,2013-07-22 16:30:00,
2013-07-22 12:35:00,79.2,50.0,29.91,South,173,0.0,0.0,36,-99.99,,,-99.99,perl,2013-07-22 16:35:00,
2013-07-22 12:41:00,79.3,50.0,29.91,ENE,76,4.0,4.9,36,-99.99,,,-99.99,perl,2013-07-22 16:41:00,
2013-07-22 12:46:00,79.5,51.8,29.91,South,177,0.0,0.0,38,-99.99,,,-99.99,perl,2013-07-22 16:46:00,
2013-07-22 12:51:00,80.2,53.6,29.91,ESE,112,3.6,3.6,40,-99.99,,,-99.99,perl,2013-07-22 16:51:00,
2013-07-22 12:56:00,80.4,51.8,29.91,East,93,2.6,4.0,37,-99.99,,,-99.99,perl,2013-07-22 16:56:00,
2013-07-22 13:01:00,80.2,53.6,29.91,ESE,112,2.7,3.1,40,-99.99,,,-99.99,perl,2013-07-22 17:01:00,
2013-07-22 13:06:00,80.2,53.6,29.91,SSW,201,2.2,0.0,40,-99.99,,,-99.99,perl,2013-07-22 17:06:00,
2013-07-22 13:11:00,80.6,53.6,29.88,ESE,109,0.0,0.0,40,-99.99,,,-99.99,perl,2013-07-22 17:11:00,
2013-07-22 13:16:00,81.3,53.6,29.88,SE,130,0.0,0.0,39,-99.99,,,-99.99,perl,2013-07-22 17:16:00,
2013-07-22 13:21:00,81.0,51.8,29.88,East,97,3.6,3.6,36,-99.99,,,-99.99,perl,2013-07-22 17:21:00,
2013-07-22 13:26:00,81.0,51.8,29.88,SW,220,2.2,0.0,36,-99.99,,,-99.99,perl,2013-07-22 17:26:00,
2013-07-22 13:31:00,81.0,53.6,29.88,East,91,1.8,4.9,39,-99.99,,,-99.99,perl,2013-07-22 17:31:00,
2013-07-22 13:36:00,80.4,53.6,29.88,South,191,0.0,0.0,40,-99.99,,,-99.99,perl,2013-07-22 17:36:00,
2013-07-22 13:41:00,80.2,55.4,29.88,SE,131,0.0,0.0,43,-99.99,,,-99.99,perl,2013-07-22 17:41:00,
2013-07-22 13:46:00,80.4,55.4,29.88,East,95,0.0,0.0,43,-99.99,,,-99.99,perl,2013-07-22 17:46:00,
2013-07-22 13:51:00,80.8,55.4,29.88,NNE,19,0.0,0.0,42,-99.99,,,-99.99,perl,2013-07-22 17:51:00,
2013-07-22 13:56:00,81.1,51.8,29.88,SSE,148,2.2,0.0,36,-99.99,,,-99.99,perl,2013-07-22 17:56:00,
2013-07-22 14:04:00,81.0,55.4,29.88,East,94,3.1,4.9,42,-99.99,,,-99.99,perl,2013-07-22 18:04:00,
2013-07-22 14:09:00,80.2,55.4,29.88,ENE,63,0.0,0.0,43,-99.99,,,-99.99,perl,2013-07-22 18:09:00,
2013-07-22 14:14:00,79.9,57.2,29.88,South,181,0.0,0.0,46,-99.99,,,-99.99,perl,2013-07-22 18:14:00,
2013-07-22 14:20:00,79.3,55.4,29.88,ESE,113,0.0,2.2,44,-99.99,,,-99.99,perl,2013-07-22 18:20:00,
2013-07-22 14:25:00,79.3,57.2,29.88,NE,43,0.0,2.7,47,-99.99,,,-99.99,perl,2013-07-22 18:25:00,
2013-07-22 14:30:00,79.5,57.2,29.88,NE,41,0.0,0.0,47,-99.99,,,-99.99,perl,2013-07-22 18:30:00,
2013-07-22 14:35:00,79.7,59.0,29.88,NNW,340,0.0,0.0,49,-99.99,,,-99.99,perl,2013-07-22 18:35:00,
2013-07-22 14:40:00,79.5,57.2,29.88,SSE,159,0.0,0.0,47,-99.99,,,-99.99,perl,2013-07-22 18:40:00,
2013-07-22 14:46:00,79.7,59.0,29.88,South,181,0.0,0.0,49,-99.99,,,-99.99,perl,2013-07-22 18:46:00,
2013-07-22 14:52:00,79.3,57.2,29.88,ESE,108,0.0,0.0,47,-99.99,,,-99.99,perl,2013-07-22 18:52:00,
2013-07-22 14:58:00,79.5,57.2,29.85,NE,56,0.0,0.0,47,-99.99,,,-99.99,perl,2013-07-22 18:58:00,
2013-07-22 15:03:00,79.7,59.0,29.85,North,349,0.0,0.0,49,-99.99,,,-99.99,perl,2013-07-22 19:03:00,
2013-07-22 15:09:00,79.9,59.0,29.85,East,79,0.0,0.0,49,-99.99,,,-99.99,perl,2013-07-22 19:09:00,
2013-07-22 15:14:00,79.7,59.0,29.85,NNW,348,0.0,0.0,49,-99.99,,,-99.99,perl,2013-07-22 19:14:00,
2013-07-22 15:19:00,79.7,59.0,29.85,WSW,254,0.0,0.0,49,-99.99,,,-99.99,perl,2013-07-22 19:19:00,
2013-07-22 15:26:00,79.7,59.0,29.85,North,2,0.0,0.0,49,-99.99,,,-99.99,perl,2013-07-22 19:26:00,
2013-07-22 15:31:00,79.0,57.2,29.85,North,349,0.0,0.0,47,-99.99,,,-99.99,perl,2013-07-22 19:31:00,
2013-07-22 15:36:00,78.8,57.2,29.85,South,189,0.0,0.0,48,-99.99,,,-99.99,perl,2013-07-22 19:36:00,
2013-07-22 15:41:00,78.4,57.2,29.85,NNW,341,0.0,0.0,48,-99.99,,,-99.99,perl,2013-07-22 19:41:00,
2013-07-22 15:46:00,78.3,59.0,29.85,East,99,0.0,0.0,52,-99.99,,,-99.99,perl,2013-07-22 19:46:00,
2013-07-22 15:52:00,78.1,59.0,29.85,NNE,23,0.0,0.0,52,-99.99,,,-99.99,perl,2013-07-22 19:52:00,
2013-07-22 15:57:00,78.1,59.0,29.82,NNW,343,0.0,0.0,52,-99.99,,,-99.99,perl,2013-07-22 19:57:00,
2013-07-22 16:02:00,78.1,60.8,29.82,SE,143,0.0,0.0,55,-99.99,,,-99.99,perl,2013-07-22 20:02:00,
2013-07-22 16:07:00,78.6,60.8,29.82,ESE,117,0.0,0.0,55,-99.99,,,-99.99,perl,2013-07-22 20:07:00,
2013-07-22 16:12:00,78.8,59.0,29.82,WSW,243,0.0,0.0,51,-99.99,,,-99.99,perl,2013-07-22 20:12:00,
2013-07-22 16:17:00,78.6,59.0,29.82,NNE,31,0.0,0.0,51,-99.99,,,-99.99,perl,2013-07-22 20:17:00,
2013-07-22 16:18:00,78.6,59.0,29.82,ESE,106,0.0,0.0,51,-99.99,,,-99.99,perl,2013-07-22 20:18:00,
2013-07-22 16:19:00,78.4,59.0,29.82,SE,127,0.0,0.0,52,-99.99,,,-99.99,perl,2013-07-22 20:19:00,
2013-07-22 16:21:00,78.3,59.0,29.82,NNE,20,0.0,0.0,52,-99.99,,,-99.99,perl,2013-07-22 20:21:00,
2013-07-22 16:24:00,78.1,59.0,29.82,NE,43,0.0,0.0,52,-99.99,,,-99.99,perl,2013-07-22 20:24:00,
2013-07-22 16:29:00,77.9,59.0,29.82,NNE,20,0.0,0.0,52,-99.99,,,-99.99,perl,2013-07-22 20:29:00,
2013-07-22 16:34:00,77.9,60.8,29.82,NNE,33,0.0,0.0,56,-99.99,,,-99.99,perl,2013-07-22 20:34:00,
2013-07-22 16:39:00,77.9,59.0,29.82,North,357,0.0,0.0,52,-99.99,,,-99.99,perl,2013-07-22 20:39:00,
2013-07-22 16:44:00,77.5,59.0,29.79,ENE,75,0.0,4.9,53,-99.99,,,-99.99,perl,2013-07-22 20:44:00,
2013-07-22 16:49:00,77.2,59.0,29.79,NNE,18,0.0,0.0,54,-99.99,,,-99.99,perl,2013-07-22 20:49:00,
2013-07-22 16:54:00,77.2,59.0,29.79,NNE,22,0.0,0.0,54,-99.99,,,-99.99,perl,2013-07-22 20:54:00,
2013-07-22 17:00:00,77.0,59.0,29.82,WSW,255,0.0,0.0,54,-99.99,,,-99.99,perl,2013-07-22 21:00:00,
2013-07-22 17:05:00,77.0,59.0,29.82,ENE,68,0.0,0.0,54,-99.99,,,-99.99,perl,2013-07-22 21:05:00,
2013-07-22 17:10:00,76.6,59.0,29.82,NE,38,0.0,0.0,55,-99.99,,,-99.99,perl,2013-07-22 21:10:00,
2013-07-22 17:15:00,76.5,59.0,29.82,NE,41,0.0,0.0,55,-99.99,,,-99.99,perl,2013-07-22 21:15:00,
2013-07-22 17:20:00,76.5,60.8,29.82,NE,35,0.0,0.0,58,-99.99,,,-99.99,perl,2013-07-22 21:20:00,
2013-07-22 17:25:00,76.5,60.8,29.82,ENE,76,0.0,0.0,58,-99.99,,,-99.99,perl,2013-07-22 21:25:00,
2013-07-22 17:30:00,76.3,60.8,29.82,ENE,72,0.0,0.0,59,-99.99,,,-99.99,perl,2013-07-22 21:30:00,
2013-07-22 17:35:00,76.3,60.8,29.82,East,82,0.0,0.0,59,-99.99,,,-99.99,perl,2013-07-22 21:35:00,
2013-07-22 17:40:00,76.3,60.8,29.82,ENE,66,0.0,0.0,59,-99.99,,,-99.99,perl,2013-07-22 21:40:00,
2013-07-22 17:45:00,76.3,60.8,29.82,North,357,0.0,0.0,59,-99.99,,,-99.99,perl,2013-07-22 21:45:00,
2013-07-22 17:50:00,76.3,60.8,29.82,NE,49,0.0,0.0,59,-99.99,,,-99.99,perl,2013-07-22 21:50:00,
2013-07-22 17:55:00,76.1,60.8,29.79,East,92,0.0,4.0,60,-99.99,,,-99.99,perl,2013-07-22 21:55:00,
2013-07-22 18:00:00,75.7,59.0,29.79,ESE,121,0.0,0.0,57,-99.99,,,-99.99,perl,2013-07-22 22:00:00,
2013-07-22 18:05:00,75.6,59.0,29.79,NNE,24,0.0,0.0,57,-99.99,,,-99.99,perl,2013-07-22 22:05:00,
2013-07-22 18:10:00,75.6,59.0,29.79,ENE,60,0.0,0.0,57,-99.99,,,-99.99,perl,2013-07-22 22:10:00,
2013-07-22 18:15:00,75.6,59.0,29.79,East,90,0.0,0.0,57,-99.99,,,-99.99,perl,2013-07-22 22:15:00,
2013-07-22 18:20:00,75.6,59.0,29.79,ENE,65,0.0,0.0,57,-99.99,,,-99.99,perl,2013-07-22 22:20:00,
2013-07-22 18:25:00,75.6,59.0,29.79,ENE,67,0.0,0.0,57,-99.99,,,-99.99,perl,2013-07-22 22:25:00,
2013-07-22 18:30:00,75.4,59.0,29.79,ENE,59,0.0,0.0,57,-99.99,,,-99.99,perl,2013-07-22 22:30:00,
2013-07-22 18:35:00,75.2,59.0,29.79,NNE,25,0.0,0.0,57,-99.99,,,-99.99,perl,2013-07-22 22:35:00,
2013-07-22 18:41:00,75.2,59.0,29.79,ENE,63,0.0,0.0,57,-99.99,,,-99.99,perl,2013-07-22 22:41:00,
2013-07-22 18:46:00,75.0,59.0,29.79,NE,36,0.0,0.0,58,-99.99,,,-99.99,perl,2013-07-22 22:46:00,
2013-07-22 18:51:00,74.8,59.0,29.79,ENE,73,0.0,0.0,58,-99.99,,,-99.99,perl,2013-07-22 22:51:00,
2013-07-22 18:56:00,74.7,59.0,29.79,NNE,24,0.0,0.0,58,-99.99,,,-99.99,perl,2013-07-22 22:56:00,
2013-07-22 19:01:00,74.5,59.0,29.79,East,91,0.0,0.0,59,-99.99,,,-99.99,perl,2013-07-22 23:01:00,
2013-07-22 19:06:00,74.3,59.0,29.79,ENE,75,2.2,0.0,59,-99.99,,,-99.99,perl,2013-07-22 23:06:00,
2013-07-22 19:11:00,73.9,57.2,29.79,East,90,0.0,0.0,56,-99.99,,,-99.99,perl,2013-07-22 23:11:00,
2013-07-22 19:16:00,73.9,57.2,29.79,East,94,0.0,0.0,56,-99.99,,,-99.99,perl,2013-07-22 23:16:00,
2013-07-22 19:21:00,73.8,57.2,29.79,ENE,77,0.4,2.7,56,-99.99,,,-99.99,perl,2013-07-22 23:21:00,
2013-07-22 19:26:00,73.6,57.2,29.79,NE,49,0.0,0.0,57,-99.99,,,-99.99,perl,2013-07-22 23:26:00,
2013-07-22 19:31:00,73.6,57.2,29.79,NE,48,0.0,0.0,57,-99.99,,,-99.99,perl,2013-07-22 23:31:00,
2013-07-22 19:36:00,73.4,59.0,29.79,NE,49,0.0,0.0,61,-99.99,,,-99.99,perl,2013-07-22 23:36:00,
2013-07-22 19:42:00,73.4,59.0,29.79,NE,56,0.0,0.0,61,-99.99,,,-99.99,perl,2013-07-22 23:42:00,
2013-07-22 19:47:00,73.4,59.0,29.79,ENE,58,0.0,0.0,61,-99.99,,,-99.99,perl,2013-07-22 23:47:00,
2013-07-22 19:52:00,73.2,59.0,29.79,ENE,57,0.0,0.0,61,-99.99,,,-99.99,perl,2013-07-22 23:52:00,
2013-07-22 19:57:00,73.2,59.0,29.79,East,86,0.0,0.0,61,-99.99,,,-99.99,perl,2013-07-22 23:57:00,
2013-07-22 20:02:00,73.0,59.0,29.79,ENE,76,0.0,0.0,62,-99.99,,,-99.99,perl,2013-07-23 00:02:00,
2013-07-22 20:07:00,73.0,59.0,29.79,SSE,155,0.0,0.0,62,-99.99,,,-99.99,perl,2013-07-23 00:07:00,
2013-07-22 20:13:00,73.0,59.0,29.79,SSE,159,0.0,0.0,62,-99.99,,,-99.99,perl,2013-07-23 00:13:00,
2013-07-22 20:18:00,72.9,59.0,29.79,South,190,0.0,0.0,62,-99.99,,,-99.99,perl,2013-07-23 00:18:00,
2013-07-22 20:23:00,72.7,60.8,29.79,South,185,0.0,0.0,66,-99.99,,,-99.99,perl,2013-07-23 00:23:00,
2013-07-22 20:28:00,72.1,59.0,29.79,SE,136,0.0,0.0,64,-99.99,,,-99.99,perl,2013-07-23 00:28:00,
2013-07-22 20:33:00,71.6,59.0,29.79,SSE,148,0.0,0.0,65,-99.99,,,-99.99,perl,2013-07-23 00:33:00,
2013-07-22 20:38:00,71.2,59.0,29.79,SSE,148,0.0,0.0,66,-99.99,,,-99.99,perl,2013-07-23 00:38:00,
2013-07-22 20:43:00,70.9,59.0,29.79,SSE,148,0.0,0.0,66,-99.99,,,-99.99,perl,2013-07-23 00:43:00,
2013-07-22 20:48:00,70.5,57.2,29.79,SSE,148,0.0,0.0,63,-99.99,,,-99.99,perl,2013-07-23 00:48:00,
2013-07-22 20:54:00,70.3,57.2,29.79,SSE,148,0.0,0.0,64,-99.99,,,-99.99,perl,2013-07-23 00:54:00,
2013-07-22 20:59:00,70.2,59.0,29.79,SSE,148,0.0,0.0,68,-99.99,,,-99.99,perl,2013-07-23 00:59:00,
2013-07-22 21:04:00,69.8,59.0,29.79,SSE,148,0.0,0.0,69,-99.99,,,-99.99,perl,2013-07-23 01:04:00,
2013-07-22 21:09:00,69.6,59.0,29.79,SSE,147,0.0,0.0,69,-99.99,,,-99.99,perl,2013-07-23 01:09:00,
2013-07-22 21:14:00,69.4,59.0,29.79,SSE,148,0.0,0.0,70,-99.99,,,-99.99,perl,2013-07-23 01:14:00,
2013-07-22 21:19:00,69.4,60.8,29.79,SSE,148,0.0,0.0,75,-99.99,,,-99.99,perl,2013-07-23 01:19:00,
2013-07-22 21:24:00,69.4,60.8,29.79,SSE,147,0.0,0.0,75,-99.99,,,-99.99,perl,2013-07-23 01:24:00,
2013-07-22 21:29:00,69.4,60.8,29.79,SSE,148,0.0,0.0,75,-99.99,,,-99.99,perl,2013-07-23 01:29:00,
2013-07-22 21:34:00,69.4,60.8,29.79,SSE,148,0.0,0.0,75,-99.99,,,-99.99,perl,2013-07-23 01:34:00,
2013-07-22 21:39:00,69.4,60.8,29.79,SSE,148,0.0,0.0,75,-99.99,,,-99.99,perl,2013-07-23 01:39:00,
2013-07-22 21:44:00,69.4,60.8,29.79,SSE,148,0.0,0.0,75,-99.99,,,-99.99,perl,2013-07-23 01:44:00,
2013-07-22 21:49:00,69.4,62.6,29.79,SSE,149,0.0,0.0,79,-99.99,,,-99.99,perl,2013-07-23 01:49:00,
2013-07-22 21:54:00,69.4,62.6,29.79,SSE,149,0.0,0.0,79,-99.99,,,-99.99,perl,2013-07-23 01:54:00,
2013-07-22 21:59:00,69.4,62.6,29.79,SSE,148,0.0,0.0,79,-99.99,,,-99.99,perl,2013-07-23 01:59:00,
2013-07-22 22:04:00,69.4,62.6,29.79,SSE,148,0.0,0.0,79,-99.99,,,-99.99,perl,2013-07-23 02:04:00,
2013-07-22 22:10:00,69.6,62.6,29.79,SSE,148,0.0,0.0,79,-99.99,,,-99.99,perl,2013-07-23 02:10:00,
2013-07-22 22:15:00,69.6,62.6,29.79,SSE,149,0.0,0.0,79,-99.99,,,-99.99,perl,2013-07-23 02:15:00,
2013-07-22 22:20:00,69.6,62.6,29.79,SSE,148,0.0,0.0,79,-99.99,,,-99.99,perl,2013-07-23 02:20:00,
2013-07-22 22:25:00,69.8,62.6,29.79,SSE,148,0.0,0.0,78,-99.99,,,-99.99,perl,2013-07-23 02:25:00,
2013-07-22 22:31:00,69.8,62.6,29.79,SSE,147,0.0,0.0,78,-99.99,,,-99.99,perl,2013-07-23 02:31:00,
2013-07-22 22:36:00,69.8,62.6,29.79,SSE,147,0.0,0.0,78,-99.99,,,-99.99,perl,2013-07-23 02:36:00,
2013-07-22 22:41:00,69.6,62.6,29.79,SSE,148,0.0,0.0,79,-99.99,,,-99.99,perl,2013-07-23 02:41:00,
2013-07-22 22:46:00,69.6,62.6,29.79,SSE,148,0.0,0.0,79,-99.99,,,-99.99,perl,2013-07-23 02:46:00,
2013-07-22 22:51:00,69.6,64.4,29.79,SSE,148,0.0,0.0,84,-99.99,,,-99.99,perl,2013-07-23 02:51:00,
2013-07-22 22:56:00,69.6,64.4,29.76,SSE,147,0.0,0.0,84,-99.99,,,-99.99,perl,2013-07-23 02:56:00,
2013-07-22 23:01:00,69.4,64.4,29.76,SSE,149,0.0,0.0,85,-99.99,,,-99.99,perl,2013-07-23 03:01:00,
2013-07-22 23:06:00,69.3,64.4,29.76,SSE,148,0.0,0.0,85,-99.99,,,-99.99,perl,2013-07-23 03:06:00,
2013-07-22 23:11:00,69.3,64.4,29.76,SSE,148,0.0,0.0,85,-99.99,,,-99.99,perl,2013-07-23 03:11:00,
2013-07-22 23:16:00,69.3,64.4,29.76,SSE,148,0.0,0.0,85,-99.99,,,-99.99,perl,2013-07-23 03:16:00,
2013-07-22 23:21:00,69.3,64.4,29.76,SSE,149,0.0,0.0,85,-99.99,,,-99.99,perl,2013-07-23 03:21:00,
2013-07-22 23:26:00,69.3,64.4,29.76,ESE,109,0.0,0.0,85,-99.99,,,-99.99,perl,2013-07-23 03:26:00,
2013-07-22 23:31:00,69.3,66.2,29.76,ESE,102,0.0,0.0,90,-99.99,,,-99.99,perl,2013-07-23 03:31:00,
2013-07-22 23:36:00,69.1,66.2,29.76,East,92,0.0,0.0,91,-99.99,,,-99.99,perl,2013-07-23 03:36:00,
2013-07-22 23:41:00,68.9,66.2,29.76,ESE,112,0.0,0.0,91,-99.99,,,-99.99,perl,2013-07-23 03:41:00,
2013-07-22 23:47:00,68.7,64.4,29.76,SE,129,0.0,0.0,87,-99.99,,,-99.99,perl,2013-07-23 03:47:00,
2013-07-22 23:52:00,68.7,64.4,29.76,SE,129,0.0,0.0,87,-99.99,,,-99.99,perl,2013-07-23 03:52:00,
2013-07-22 23:57:00,68.7,64.4,29.76,East,83,0.0,0.0,87,-99.99,,,-99.99,perl,2013-07-23 03:57:00,